Theta_e
319 319 319 318 318 318 319 318 318 319 317 317 319 318 319 318 312 312 312 308 307 307 306 306 305 305 306 305 307 308 306 305 305 305 306 305 305 304 304 303 303 303
321 320 319 318 318 318 319 319 318 319 317 316 318 318 320 319 314 313 311 308 308 308 307 307 306 305 306 305 305 306 305 305 305 305 305 305 305 304 304 304 303 303
321 321 319 319 318 317 319 319 319 319 318 317 318 318 320 319 315 313 311 309 309 308 307 308 307 306 306 305 305 306 305 305 305 305 305 305 305 305 304 304 304 303
320 321 321 320 319 317 319 320 320 319 318 318 317 317 319 319 315 313 311 309 309 308 308 308 307 307 307 306 306 306 306 305 305 305 305 305 304 305 305 305 304 304
316 319 320 320 320 319 319 320 320 319 319 319 318 317 319 318 316 314 312 310 310 309 308 308 308 308 308 307 307 307 306 306 305 305 305 305 304 304 304 304 305 305
318 318 318 319 320 321 321 320 320 319 319 319 319 318 319 318 316 315 313 312 312 311 309 309 308 308 308 308 307 307 308 308 306 305 306 305 304 304 304 304 305 305
322 319 320 321 320 319 321 322 320 319 318 319 319 319 319 318 317 317 316 314 314 314 312 310 309 309 308 308 308 308 309 309 307 306 307 308 305 304 304 304 304 305
322 319 321 323 320 318 320 322 321 318 317 317 318 319 319 319 318 318 317 315 315 316 315 313 311 310 309 309 309 309 308 309 308 307 308 308 306 304 305 305 304 304
323 320 320 320 318 316 316 318 319 318 318 318 318 318 318 318 318 318 318 317 316 316 317 316 315 313 311 309 309 309 309 309 309 308 308 308 306 305 306 305 304 304
324 323 323 322 321 319 316 315 316 317 318 317 318 319 319 318 318 318 318 318 317 317 317 316 316 314 312 311 310 310 310 310 310 309 309 308 307 306 306 305 304 304
323 323 323 323 322 321 320 319 319 319 318 317 318 318 318 318 318 319 319 319 319 318 317 316 315 314 313 312 311 310 310 311 310 310 310 309 308 307 306 305 304 303
322 323 323 323 322 322 322 322 322 322 321 320 320 320 319 318 318 319 319 319 319 319 318 317 316 315 314 313 312 311 311 311 311 310 311 310 309 307 306 305 304 303
316 318 319 322 322 322 323 324 324 324 323 322 322 321 321 320 319 318 318 319 319 319 319 318 317 316 315 313 313 312 311 311 311 311 311 310 309 308 306 304 303 303
311 312 313 315 316 316 317 318 320 321 323 323 322 321 321 321 321 319 318 319 319 319 320 319 318 317 316 314 314 313 312 312 311 311 311 310 309 307 305 304 303 302
310 310 311 311 311 312 312 313 312 314 317 319 320 320 320 321 321 320 319 319 320 320 320 319 318 317 316 315 314 313 312 312 311 311 310 309 308 306 304 304 302 302
307 307 308 308 309 309 310 310 310 310 311 314 318 321 321 322 322 321 321 320 320 320 319 319 318 317 316 315 314 314 313 312 311 310 308 307 306 305 304 303 302 301
306 305 305 305 305 307 309 311 312 314 315 315 317 318 319 321 322 322 321 320 320 320 319 318 318 317 316 315 314 314 312 311 311 309 307 306 305 304 303 302 302 301
307 306 306 306 307 309 313 314 314 315 317 317 317 315 314 317 320 320 321 321 321 320 318 318 317 316 316 315 314 314 312 311 310 308 306 305 304 303 303 302 301 301
308 308 309 309 309 310 313 315 315 316 316 317 317 314 310 311 314 316 319 320 320 319 317 316 316 315 315 314 314 313 311 310 309 306 305 304 303 302 302 302 301 300
309 309 309 309 309 309 310 312 315 316 316 315 316 315 312 311 312 314 317 319 319 318 317 316 315 314 314 313 313 311 310 309 308 304 303 303 302 302 302 301 300 299
310 309 308 308 308 308 309 311 313 315 315 315 315 315 315 315 314 314 315 317 317 317 316 315 314 313 313 313 312 311 310 309 306 304 303 303 302 301 301 300 299 298
309 308 308 308 308 309 309 310 312 314 315 315 315 315 315 315 315 314 313 314 316 316 315 315 313 313 313 312 311 310 310 308 305 303 303 302 301 301 300 299 299 299
308 308 308 308 308 308 309 310 312 314 315 315 315 315 314 314 314 314 313 314 315 315 314 313 312 312 311 310 310 310 309 306 303 302 301 301 301 301 301 300 300 300
308 308 308 308 308 308 309 310 311 313 314 314 314 314 314 314 314 313 313 314 314 313 312 311 311 311 310 310 309 309 307 305 303 301 301 301 301 301 301 301 300 300
308 308 308 309 309 308 308 309 310 312 313 313 313 313 313 313 313 313 312 312 312 310 309 309 310 310 309 308 307 306 306 305 303 301 301 301 301 301 301 301 301 300
307 307 308 309 309 309 308 308 309 311 312 313 312 312 312 312 312 312 312 311 309 308 307 308 309 308 307 306 305 305 304 302 299 298 299 300 300 300 300 300 300 299
Wind_Speed
16 15 15 14 13 13 13 13 12 13 11 10 9 9 9 8 5 5 4 1 2 2 3 3 3 3 3 4 6 5 5 6 6 6 6 7 7 7 7 6 5 4
17 16 15 15 14 13 13 13 13 14 13 12 11 10 11 10 7 7 6 3 1 1 1 2 2 3 3 3 4 4 4 4 5 6 6 7 8 8 8 8 7 6
18 17 16 15 15 14 14 14 14 14 13 13 13 12 13 13 9 8 7 5 4 3 1 1 1 1 2 2 3 3 2 3 4 5 5 6 7 8 8 8 9 8
20 18 17 16 15 15 14 15 15 15 14 14 14 13 15 14 11 9 8 7 7 6 4 3 2 1 2 2 2 2 1 1 2 3 3 4 4 6 7 8 8 9
20 19 19 17 16 15 14 15 15 15 14 14 14 14 16 15 12 11 10 9 9 8 6 5 5 4 4 4 3 3 2 1 1 1 1 2 2 3 4 6 7 8
19 19 18 16 15 14 14 14 15 14 14 14 15 15 16 16 14 13 12 10 11 10 9 8 8 7 7 6 6 5 3 3 3 2 2 2 3 3 4 5 6 8
17 18 15 14 17 17 16 15 15 16 15 14 15 15 16 17 16 15 14 12 12 13 12 11 10 10 10 9 8 7 5 5 5 3 3 4 4 5 5 6 6 6
16 19 17 17 21 22 20 17 16 17 16 15 16 16 17 18 18 17 17 15 14 15 14 14 13 13 12 11 11 11 9 8 7 5 5 6 6 6 6 7 8 6
14 17 18 20 23 24 24 22 19 18 17 17 18 18 18 20 19 19 19 18 17 17 16 16 15 15 15 14 14 14 12 11 9 7 7 8 7 6 6 8 10 9
11 13 15 17 20 23 24 25 24 23 23 20 20 20 20 20 21 21 21 21 20 19 18 18 18 18 18 17 16 16 15 13 12 9 9 9 8 7 7 9 11 10
10 11 13 14 15 17 20 22 23 25 26 25 24 24 23 22 22 22 22 22 23 22 22 22 21 21 21 19 18 18 16 15 13 12 11 10 9 9 10 10 11 11
2 5 9 12 13 14 16 18 19 20 21 22 23 24 24 23 23 23 23 24 25 25 25 25 24 23 23 21 19 19 18 17 15 14 13 11 11 11 11 12 12 11
3 1 3 4 7 10 12 14 15 17 19 19 19 19 20 22 23 24 26 26 26 26 26 25 24 23 23 22 21 21 20 18 17 16 15 13 13 12 12 13 13 12
3 6 6 5 5 5 6 7 10 14 17 19 19 19 20 22 22 24 26 27 28 27 25 25 25 25 25 23 22 22 21 20 19 18 16 15 15 14 14 14 14 13
4 8 11 12 12 11 11 12 12 13 14 15 17 19 20 22 22 23 24 24 26 27 25 25 27 29 29 27 25 24 22 20 19 18 16 16 15 14 15 15 14 14
3 4 6 8 9 11 13 15 14 13 12 12 14 16 18 20 21 23 24 24 26 28 28 28 29 29 30 30 29 26 22 20 19 18 16 15 14 14 14 15 14 14
6 7 8 8 8 8 9 10 11 11 11 12 13 14 16 17 18 21 23 25 27 29 29 31 32 31 31 32 32 28 24 22 21 18 16 15 14 14 13 14 14 14
6 8 9 9 9 8 8 9 10 10 11 12 12 13 14 14 15 19 20 22 26 28 30 33 33 32 32 33 33 31 28 25 20 17 16 15 14 14 12 11 11 11
5 6 6 7 8 8 8 10 11 11 11 12 12 14 15 14 14 15 16 21 24 26 30 34 33 31 32 34 34 32 30 25 18 15 15 14 13 13 12 11 11 12
5 5 6 8 9 10 10 11 11 12 12 12 11 13 15 14 12 11 13 18 20 23 28 33 35 34 34 34 33 31 28 22 16 13 14 13 12 14 14 14 14 14
6 7 9 11 12 12 12 11 12 13 13 12 11 12 12 12 12 12 12 14 18 24 29 32 34 35 35 34 33 31 25 20 16 17 17 15 13 15 15 15 14 14
7 9 10 12 12 12 12 12 12 13 13 12 12 12 13 13 14 14 13 13 20 27 31 32 32 34 34 33 32 28 23 18 16 16 15 13 12 13 14 13 13 12
9 10 11 12 12 12 12 12 11 12 12 12 12 12 13 13 14 15 15 15 20 26 29 30 31 32 33 31 28 25 21 17 13 10 9 10 10 12 12 12 12 13
10 10 11 12 12 12 12 12 11 12 12 12 12 13 13 13 14 16 16 16 19 22 24 26 28 32 31 27 24 22 19 17 12 7 6 9 10 11 11 11 12 14
10 11 12 12 11 12 12 12 11 12 12 13 13 13 12 12 14 15 15 15 17 17 19 22 26 29 27 23 21 19 18 17 13 9 8 10 11 11 11 10 11 13
12 12 12 12 12 12 13 13 12 12 13 13 13 13 12 12 14 15 15 14 14 16 20 22 24 25 23 20 19 18 16 13 10 9 9 9 9 9 9 10 10 11
Wind_Direction
189 189 191 191 191 191 187 184 182 181 179 177 184 183 180 196 198 172 186 197 102 98 90 101 105 104 106 107 110 108 100 91 82 74 67 62 59 55 48 40 36 29
192 193 195 196 197 198 194 192 187 186 184 180 185 185 183 198 207 193 210 242 218 174 95 102 104 112 120 113 116 112 98 86 76 66 60 57 53 49 45 41 39 32
194 196 199 199 201 202 199 197 193 192 191 186 185 183 183 199 211 205 218 239 236 245 234 162 137 132 150 139 131 128 104 75 65 56 51 55 51 44 42 39 35 28
198 200 203 203 204 206 203 201 199 197 196 193 191 187 187 200 210 209 219 228 232 249 252 237 251 231 228 230 185 167 136 76 49 41 41 42 39 38 39 35 33 26
205 205 206 207 208 209 208 208 207 205 203 200 196 192 192 202 212 215 222 223 226 243 247 241 249 250 255 253 232 237 241 237 322 356 355 352 5 15 18 18 19 19
209 211 211 214 216 216 217 217 215 211 211 209 206 201 199 205 214 218 227 229 223 232 242 241 243 244 251 254 247 253 247 234 271 297 273 282 312 330 343 349 351 356
213 215 215 218 220 220 221 223 221 216 219 221 217 211 206 209 213 214 223 232 226 226 234 238 241 240 243 247 245 245 236 238 271 290 235 241 289 311 315 327 337 335
222 224 224 228 227 222 219 223 226 224 227 232 231 227 222 218 216 215 223 232 228 222 222 227 233 237 240 242 239 241 243 247 268 276 226 232 276 299 297 308 324 323
227 231 233 239 239 234 229 231 235 234 231 233 235 235 232 229 224 220 223 231 231 223 217 216 219 228 239 241 238 243 247 249 256 257 243 254 278 279 265 284 307 315
229 234 233 233 237 240 240 242 245 246 241 238 237 235 234 237 234 227 223 225 226 224 222 220 220 228 241 243 240 244 246 247 252 254 255 264 270 259 251 266 287 297
232 237 235 231 234 241 245 248 252 252 249 245 244 242 240 237 232 228 227 223 221 224 231 236 234 236 242 243 240 243 244 242 248 253 257 261 261 261 261 265 274 281
216 246 248 244 240 239 243 248 250 251 250 248 246 247 246 241 233 231 231 225 223 226 230 237 240 238 240 242 240 242 243 242 245 250 254 258 263 269 271 270 272 273
110 226 260 249 237 236 242 250 250 252 254 252 251 252 250 248 246 244 240 232 229 227 224 227 232 232 237 240 236 238 243 242 243 246 248 253 261 266 267 269 272 271
218 248 263 279 281 271 270 276 274 269 263 256 258 261 256 253 252 250 247 241 234 229 222 219 220 224 235 240 233 231 237 238 240 243 244 250 259 262 263 266 271 273
262 260 265 272 275 275 278 283 288 289 282 269 263 262 259 257 254 249 246 240 233 229 223 219 221 225 235 239 231 227 230 232 234 237 239 248 258 263 265 269 273 277
350 311 290 279 271 268 269 271 273 282 290 281 266 258 254 256 257 252 246 238 234 234 230 226 222 221 229 236 233 229 227 225 229 232 235 245 255 259 264 272 277 281
330 324 318 310 304 296 284 275 273 275 277 275 269 262 255 252 253 254 250 240 236 237 235 228 220 218 228 235 232 228 223 220 226 233 237 243 249 251 259 272 280 283
323 320 318 316 314 306 290 276 271 266 263 264 266 267 265 257 250 253 251 240 235 235 229 220 217 224 232 230 227 227 222 219 224 234 241 245 246 248 253 259 267 270
313 313 306 302 299 292 283 275 271 264 259 258 262 271 278 273 261 256 247 235 235 236 227 218 220 232 235 229 227 225 220 219 226 235 242 243 239 244 251 252 255 258
305 304 295 292 292 291 287 279 271 264 263 261 261 269 279 278 269 261 247 236 234 234 231 229 231 236 236 231 227 221 221 227 230 227 235 237 234 246 260 266 266 264
299 299 297 299 299 297 293 284 272 263 263 263 260 259 264 264 262 260 256 244 233 230 231 233 233 232 231 229 223 220 226 233 224 221 234 241 244 255 266 271 269 269
298 302 303 303 301 297 291 283 272 264 259 258 258 255 251 249 253 258 259 244 232 231 232 233 232 229 227 224 220 221 229 230 222 229 243 250 254 258 262 264 262 262
295 297 298 299 300 298 292 284 274 264 257 255 254 252 249 246 245 248 248 238 230 230 233 235 231 226 222 220 220 225 228 222 217 229 248 256 259 256 253 256 257 256
285 287 289 290 293 293 291 287 278 266 259 254 251 250 250 247 242 241 240 230 221 224 233 235 226 220 219 220 223 225 223 220 219 220 239 251 254 252 252 255 261 268
280 282 285 286 288 290 291 289 281 270 262 256 253 254 255 250 245 240 233 221 212 214 226 228 219 215 215 215 216 216 218 225 226 216 225 240 245 250 257 262 266 278
281 282 283 284 285 288 290 287 280 270 262 258 256 255 256 254 243 226 212 206 203 205 213 215 211 210 207 205 209 213 219 227 219 207 223 242 248 254 264 270 275 284